Home   Weather   Ettlingen   Past weeks

Flag for Germany Past Weather in Ettlingen, Baden-Württemberg, Germany — Yesterday and Last 2 Weeks

55 °F

Light rain. Passing clouds.

Feels Like: 55 °F
Forecast: 48 / 60 °F
Wind: 5 mph from Northeast

Location: Karlsruhe - Baden Wurttemberg

Current Time: Oct 24, 2016 at 10:15:25 PM

Latest Report: Oct 24, 2016 at 9:20 PM

Visibility: 4 mi

Pressure: 29.95 "Hg

Humidity: 100%

Dew Point: 55 °F

Location of EttlingenLocation

Past Weather in Ettlingen — Graph


Ettlingen Temperature Yesterday

Maximum temperature yesterday: 48 °F (at 3:20 PM)
Minimum temperature yesterday: 32 °F (at 4:50 AM)
Average temperature yesterday: 42 °F

High & Low Weather Summary for the Past Weeks

High63 °F (Oct 15, 4:20 PM)100% (Oct 9, 10:20 PM)30.27 "Hg (Oct 9, 10:20 PM)
Low32 °F (Oct 23, 4:50 AM)51% (Oct 12, 4:20 PM)29.62 "Hg (Oct 14, 6:50 PM)
Average49 °F88%30.01 "Hg
* Reported Oct 9 8:20 PM — Oct 24 8:50 PM, Ettlingen, Weather by CustomWeather, © 2016

Note: Actual official high and low records may vary slightly from our data, if they occured in-between our weather recording intervals... More about our weather records


Ettlingen Weather History for the Previous 24 Hours

Scroll right to see more
Time TempWeatherWind HumidityBarometerVisibility
8:50 PM
Mon, Oct 24
55 °FPassing clouds.3 mph100%29.95 "Hg4 mi
8:20 PM55 °FPassing clouds.5 mph100%29.95 "Hg4 mi
7:50 PM55 °FPassing clouds.2 mph100%29.92 "Hg5 mi
7:20 PM55 °FPassing clouds.2 mph100%29.92 "HgN/A
6:50 PM57 °FPassing clouds.2 mph94%29.92 "HgN/A
6:20 PM57 °FPassing clouds.1 mph94%29.92 "HgN/A
5:50 PM59 °FPartly sunny.1 mph88%29.89 "HgN/A
5:20 PM59 °FSunny.2 mph88%29.89 "Hg10 mi
4:50 PM61 °FPartly sunny.1 mph83%29.89 "HgN/A
4:20 PM59 °FSunny.1 mph88%29.89 "Hg10 mi
3:50 PM61 °FPassing clouds.5 mph83%29.89 "HgN/A
3:20 PM61 °FSunny.2 mph83%29.89 "Hg10 mi
2:50 PM61 °FSunny.2 mph83%29.89 "Hg10 mi
2:20 PM57 °FPartly sunny.2 mph94%29.89 "HgN/A
1:50 PM55 °FPartly sunny.2 mph94%29.89 "HgN/A
1:20 PM55 °FBroken clouds.1 mph94%29.89 "Hg5 mi
12:50 PM55 °FBroken clouds.1 mph88%29.89 "Hg5 mi
12:20 PM54 °FBroken clouds.2 mph94%29.89 "Hg6 mi
11:52 AM54 °FSprinkles. Broken clouds.2 mph94%29.92 "Hg4 mi
11:20 AM52 °FFog.2 mph100%29.92 "Hg3 mi
10:50 AM52 °FBroken clouds.3 mph100%29.89 "Hg5 mi
10:20 AM52 °FFog.1 mph94%29.92 "Hg2 mi
9:50 AM50 °FFog.No wind100%29.92 "Hg2 mi
9:20 AM50 °FLight rain. Fog.2 mph100%29.92 "Hg2 mi
8:50 AM50 °FLight rain. Fog.No wind100%29.89 "Hg2 mi
8:20 AM50 °FRain. Fog.2 mph94%29.89 "Hg2 mi
7:50 AM50 °FFog.1 mph94%29.89 "Hg3 mi
7:20 AM48 °FFog.1 mph100%29.89 "Hg3 mi
6:50 AM48 °FRain. Fog.2 mph100%29.89 "Hg2 mi
6:20 AM48 °FFog.2 mph100%29.89 "Hg2 mi
5:50 AM48 °FFog.3 mph100%29.89 "Hg2 mi
5:20 AM48 °FLight rain. Fog.2 mph100%29.89 "Hg2 mi
4:50 AM48 °FLight rain. Fog.2 mph100%29.92 "Hg3 mi
11:50 PM
Sun, Oct 23
46 °FRain. Fog.3 mph100%29.89 "Hg3 mi
11:20 PM46 °FRain. Fog.3 mph100%29.86 "Hg3 mi
10:50 PM46 °FRain. Fog.2 mph100%29.86 "Hg3 mi
10:20 PM46 °FRain. Passing clouds.1 mph100%29.86 "Hg4 mi
Weather by CustomWeather, © 2016

See weather overviewHow to use our weather pages